Temp
3 3 2 3 3 3 3 3 3 3 3 2 2 1 2 2 3 2 3 2 3 3 4 4 5 5 5 5 6 6 6 6 6 5 5 5 5 5 5 5 5 5 5
2 2 2 3 3 3 3 3 3 3 4 3 2 2 2 2 3 3 3 3 2 2 3 3 4 4 4 5 5 6 5 5 5 5 4 5 5 5 5 5 4 4 3
1 2 2 3 3 3 3 4 3 3 3 3 3 2 2 2 2 3 3 4 3 3 2 2 2 3 3 4 4 5 5 4 4 4 4 5 5 4 4 4 4 4 3
1 2 2 3 2 3 3 3 3 3 3 2 3 3 3 3 3 4 4 3 3 3 2 3 3 2 2 3 4 4 4 4 4 3 4 4 4 4 4 4 4 4 4
1 1 1 1 2 2 2 3 3 3 3 3 4 3 3 2 2 3 2 3 3 2 3 3 2 2 2 2 3 3 4 3 3 3 3 3 3 3 3 3 2 2 1
0 1 0 0 1 1 2 2 2 2 2 3 3 3 3 2 2 2 2 2 3 2 3 2 2 2 2 2 2 3 3 3 3 3 3 3 3 3 2 2 2 2 1
-0 -0 0 0 0 1 1 1 1 1 2 2 2 2 2 2 2 2 2 2 3 2 2 1 2 2 2 3 1 2 2 2 2 2 3 2 2 2 2 2 2 2 2
-3 -1 -0 -0 0 0 0 1 1 1 2 2 2 2 2 2 2 2 2 2 3 2 2 2 2 2 1 2 1 1 1 2 1 2 2 2 2 2 2 2 2 2 2
-4 -3 -1 -1 0 0 0 0 1 1 1 1 1 2 1 2 2 1 2 2 3 2 2 2 1 1 1 1 1 1 1 1 1 2 1 2 2 2 2 2 2 1 2
-6 -4 -3 -2 -1 0 1 1 1 1 1 1 1 1 1 1 1 1 1 2 2 2 2 1 2 1 1 1 1 1 0 0 1 1 1 1 1 0 1 1 1 1 1
-7 -6 -4 -4 -3 -1 -0 0 1 1 1 1 1 1 1 1 1 1 1 1 1 1 1 1 1 1 1 1 1 1 1 0 0 1 0 1 1 1 0 0 1 1 1
-8 -7 -6 -5 -4 -4 -2 -2 -1 0 1 1 1 1 1 1 1 1 0 0 1 0 1 1 1 1 1 1 1 1 1 0 1 1 0 0 -0 0 0 -0 0 0 1
-10 -9 -7 -6 -5 -4 -4 -3 -2 -1 -1 0 0 1 1 1 1 0 0 0 0 0 0 0 0 0 0 1 0 0 0 0 0 1 1 0 -0 0 -0 -0 -0 -1 -0
-12 -11 -9 -7 -6 -5 -4 -4 -3 -2 -2 -1 -0 0 0 1 0 0 0 -0 -0 -0 -0 -0 0 0 0 1 1 1 1 0 0 0 1 1 -0 -0 -0 -0 -0 -1 -1
-13 -12 -10 -9 -7 -6 -5 -5 -4 -4 -3 -2 -1 -1 -1 -1 -0 -2 -1 -1 -1 -1 -1 -1 -0 0 0 1 1 0 1 1 1 0 1 1 -0 -0 -0 -0 -0 -1 -1
-14 -13 -12 -10 -9 -8 -6 -5 -5 -4 -3 -3 -2 -3 -3 -0 -1 -2 -2 -2 -2 -1 -1 -1 -0 -0 -0 -0 0 0 -1 0 0 -0 -0 -1 -0 -0 -1 -1 -1 -1 -1
-15 -14 -13 -12 -10 -9 -8 -7 -6 -5 -4 -3 -3 -3 -2 -2 -2 -2 -2 -2 -3 -3 -2 -1 -1 -1 -0 0 1 0 -0 -1 -0 -0 0 -1 -1 -1 -1 -1 -1 -1 -1
-16 -15 -14 -13 -12 -10 -9 -8 -7 -7 -5 -4 -3 -3 -3 -2 -2 -2 -2 -2 -3 -2 -2 -1 -1 -1 -1 -0 0 0 -1 -2 -1 -1 -0 -1 -1 -1 -1 -1 -1 -1 -2
-17 -16 -15 -15 -13 -12 -11 -10 -9 -8 -7 -7 -5 -4 -3 -3 -2 -3 -2 -3 -2 -2 -2 -2 -2 -1 -1 -1 -1 -1 -3 -2 -1 -1 -1 -1 -1 -1 -2 -2 -2 -3 -3
-18 -17 -16 -15 -14 -13 -12 -11 -10 -9 -8 -7 -7 -6 -4 -4 -3 -3 -3 -3 -2 -2 -3 -3 -3 -3 -3 -3 -2 -3 -3 -2 -3 -3 -3 -2 -2 -2 -3 -3 -3 -4 -4
-18 -18 -17 -16 -15 -14 -13 -13 -11 -10 -9 -8 -8 -7 -6 -5 -4 -4 -4 -3 -3 -3 -3 -3 -3 -3 -3 -3 -3 -3 -3 -3 -4 -4 -3 -3 -3 -2 -3 -3 -3 -4 -4
-19 -18 -17 -17 -16 -16 -15 -14 -13 -12 -10 -9 -9 -8 -7 -7 -6 -5 -5 -4 -4 -4 -3 -3 -3 -3 -3 -3 -3 -3 -3 -3 -3 -4 -3 -3 -3 -3 -3 -3 -3 -3 -4
-19 -18 -18 -17 -17 -16 -16 -15 -14 -13 -11 -11 -10 -9 -8 -8 -7 -7 -6 -6 -5 -5 -4 -4 -4 -4 -4 -4 -4 -3 -3 -4 -4 -4 -4 -3 -4 -4 -4 -3 -3 -3 -3
-19 -19 -18 -18 -18 -17 -16 -16 -15 -14 -13 -12 -12 -10 -10 -9 -8 -8 -7 -6 -6 -6 -6 -5 -4 -4 -4 -4 -4 -4 -4 -4 -4 -4 -4 -3 -3 -3 -3 -3 -3 -3 -3
-19 -19 -19 -18 -18 -17 -17 -17 -16 -15 -14 -14 -13 -12 -11 -10 -10 -10 -9 -8 -7 -6 -6 -6 -6 -5 -5 -5 -5 -4 -4 -4 -5 -4 -4 -4 -4 -3 -3 -2 -2 -2 -2
-19 -19 -19 -19 -19 -18 -17 -17 -16 -16 -15 -15 -14 -13 -12 -11 -11 -10 -10 -10 -9 -9 -8 -8 -7 -6 -6 -5 -6 -6 -6 -6 -7 -6 -5 -5 -5 -4 -4 -4 -4 -3 -3
Height
3053 3059 3063 3068 3072 3077 3081 3085 3089 3094 3097 3101 3105 3109 3114 3120 3123 3128 3131 3134 3137 3139 3143 3146 3149 3153 3157 3159 3162 3165 3167 3169 3171 3174 3176 3178 3180 3182 3185 3187 3189 3190 3192
3040 3045 3050 3056 3061 3067 3072 3078 3083 3087 3090 3095 3100 3103 3109 3115 3119 3123 3127 3129 3133 3135 3138 3142 3145 3149 3151 3155 3158 3161 3163 3165 3167 3170 3172 3174 3178 3179 3181 3183 3185 3186 3188
3029 3034 3039 3044 3049 3055 3061 3067 3074 3079 3083 3088 3092 3096 3102 3106 3109 3115 3120 3123 3128 3130 3133 3137 3140 3144 3147 3151 3153 3156 3159 3161 3163 3166 3168 3170 3172 3176 3178 3179 3181 3182 3184
3019 3024 3028 3032 3038 3044 3051 3058 3064 3069 3075 3079 3084 3088 3094 3099 3105 3112 3114 3118 3123 3126 3128 3132 3135 3138 3142 3146 3149 3151 3153 3155 3158 3160 3163 3165 3168 3170 3173 3175 3177 3178 3179
3010 3014 3019 3023 3028 3034 3040 3048 3054 3061 3066 3071 3076 3081 3086 3093 3100 3104 3107 3112 3116 3119 3123 3127 3129 3133 3136 3140 3144 3146 3148 3150 3153 3156 3159 3161 3163 3165 3168 3170 3172 3173 3175
3002 3007 3012 3017 3021 3026 3032 3039 3047 3052 3057 3063 3068 3073 3078 3085 3091 3096 3099 3104 3108 3111 3116 3120 3122 3127 3130 3134 3138 3141 3143 3145 3148 3150 3153 3156 3158 3161 3162 3165 3166 3168 3169
2993 2999 3004 3010 3015 3019 3025 3031 3038 3044 3049 3053 3060 3065 3071 3078 3084 3088 3092 3097 3101 3104 3108 3113 3118 3122 3125 3129 3132 3134 3138 3140 3143 3145 3147 3150 3152 3154 3156 3158 3160 3162 3163
2983 2991 2995 3001 3007 3013 3018 3025 3031 3036 3042 3046 3052 3057 3064 3070 3075 3080 3084 3088 3093 3098 3104 3108 3112 3116 3118 3122 3125 3128 3130 3134 3136 3139 3142 3144 3146 3148 3149 3152 3154 3155 3156
2975 2982 2987 2993 2999 3006 3012 3017 3023 3028 3034 3040 3045 3050 3056 3062 3067 3073 3077 3081 3086 3090 3095 3100 3104 3108 3110 3115 3118 3121 3124 3127 3130 3134 3136 3137 3140 3142 3143 3145 3147 3148 3149
2970 2974 2980 2986 2992 2997 3004 3010 3016 3021 3027 3033 3038 3044 3049 3055 3061 3065 3070 3074 3079 3082 3087 3092 3097 3100 3103 3106 3110 3113 3116 3119 3122 3126 3129 3131 3133 3135 3136 3138 3140 3141 3142
2965 2969 2972 2979 2984 2990 2995 3001 3007 3012 3018 3025 3031 3038 3043 3048 3053 3058 3063 3068 3072 3075 3079 3084 3088 3091 3095 3098 3101 3106 3108 3111 3115 3118 3121 3124 3126 3128 3129 3131 3132 3133 3135
2962 2964 2968 2971 2977 2983 2989 2993 2998 3003 3009 3016 3022 3028 3034 3039 3044 3050 3055 3060 3064 3069 3073 3077 3080 3084 3087 3089 3094 3098 3099 3104 3107 3110 3112 3116 3117 3118 3120 3121 3123 3125 3128
2959 2961 2964 2967 2970 2976 2981 2987 2991 2996 3001 3007 3013 3019 3024 3030 3036 3042 3047 3052 3056 3061 3065 3069 3072 3076 3079 3082 3086 3090 3092 3096 3099 3101 3103 3106 3107 3109 3110 3112 3114 3116 3118
2958 2960 2961 2963 2966 2969 2974 2979 2984 2989 2994 2999 3004 3009 3015 3021 3027 3033 3038 3043 3048 3052 3056 3060 3064 3067 3071 3074 3077 3080 3082 3085 3089 3091 3094 3095 3097 3099 3100 3102 3103 3104 3108
2959 2959 2959 2960 2961 2964 2968 2972 2978 2983 2987 2992 2996 3002 3008 3013 3018 3024 3030 3034 3039 3043 3047 3051 3054 3058 3061 3065 3068 3071 3073 3076 3079 3080 3084 3087 3088 3088 3090 3092 3094 3096 3097
2959 2958 2958 2958 2959 2961 2963 2966 2970 2976 2982 2986 2991 2995 3000 3004 3011 3016 3021 3026 3030 3033 3038 3042 3046 3049 3053 3056 3059 3061 3062 3065 3069 3072 3075 3077 3078 3079 3082 3084 3085 3086 3087
2959 2958 2956 2957 2958 2959 2960 2963 2965 2968 2974 2979 2984 2989 2994 2997 3002 3009 3013 3017 3022 3025 3029 3033 3037 3041 3044 3046 3049 3050 3052 3054 3058 3062 3063 3067 3069 3070 3071 3074 3074 3075 3077
2959 2957 2956 2956 2957 2957 2958 2960 2963 2965 2967 2972 2976 2981 2986 2990 2995 3001 3005 3010 3013 3017 3021 3026 3030 3032 3035 3037 3039 3040 3043 3046 3049 3052 3054 3056 3059 3061 3061 3063 3064 3067 3068
2960 2958 2958 2956 2955 2956 2957 2959 2961 2962 2964 2966 2970 2974 2978 2983 2988 2993 2998 3002 3006 3009 3014 3018 3022 3025 3027 3029 3030 3032 3035 3038 3041 3043 3045 3049 3050 3052 3052 3053 3055 3057 3059
2961 2960 2958 2956 2955 2956 2956 2957 2958 2960 2962 2963 2966 2969 2972 2977 2981 2986 2990 2995 2998 3003 3007 3010 3014 3018 3021 3023 3025 3027 3030 3032 3035 3037 3038 3039 3041 3042 3043 3045 3047 3050 3053
2963 2960 2958 2957 2956 2956 2956 2956 2957 2959 2960 2960 2964 2967 2969 2972 2975 2978 2982 2986 2990 2995 2999 3003 3007 3011 3015 3017 3020 3022 3024 3027 3029 3031 3033 3035 3037 3038 3039 3041 3043 3045 3047
2964 2961 2959 2958 2958 2957 2957 2957 2957 2957 2956 2958 2960 2963 2967 2969 2972 2974 2976 2980 2984 2989 2991 2996 3000 3004 3008 3011 3014 3016 3019 3022 3024 3027 3029 3031 3032 3034 3036 3038 3039 3040 3041
2964 2962 2961 2959 2958 2957 2957 2957 2956 2955 2955 2956 2957 2960 2963 2966 2969 2970 2973 2976 2979 2982 2985 2988 2993 2997 3000 3004 3007 3010 3012 3015 3018 3021 3023 3026 3027 3030 3031 3033 3035 3036 3037
2964 2963 2962 2961 2959 2959 2958 2957 2955 2955 2955 2956 2956 2957 2959 2962 2965 2968 2969 2972 2975 2979 2980 2983 2986 2988 2992 2996 2999 3003 3006 3009 3011 3014 3017 3020 3021 3023 3025 3026 3028 3030 3030
2964 2963 2962 2961 2960 2959 2958 2957 2956 2955 2955 2955 2956 2956 2957 2959 2960 2963 2966 2968 2969 2972 2976 2978 2980 2982 2985 2989 2991 2994 2998 3001 3005 3008 3010 3013 3015 3017 3019 3021 3022 3023 3024
2964 2963 2962 2961 2961 2960 2959 2957 2956 2955 2955 2955 2955 2955 2956 2957 2959 2960 2962 2965 2966 2969 2970 2971 2973 2975 2977 2981 2985 2988 2990 2994 2998 3002 3004 3007 3009 3011 3012 3014 3015 3016 3018
Wind_Speed
43 51 51 46 43 40 38 35 33 33 33 35 38 40 39 37 28 26 18 28 28 27 24 23 22 21 20 20 20 20 21 21 20 18 18 18 18 18 18 19 20 20 19
47 44 50 52 51 48 43 40 35 34 33 33 36 37 37 36 30 30 26 23 21 23 25 24 22 22 22 21 21 22 22 22 21 19 18 20 20 20 19 20 21 22 18
42 43 44 48 51 51 49 46 42 39 35 35 36 37 38 37 37 36 37 30 24 24 23 23 24 23 20 21 22 23 23 22 21 21 20 21 21 18 19 20 21 23 22
43 43 40 41 49 46 52 48 46 45 40 37 37 38 38 38 36 36 30 31 32 33 32 28 24 23 25 23 22 23 23 24 23 22 21 22 20 19 18 19 19 21 20
35 38 34 33 45 41 48 50 45 44 45 43 40 38 39 39 37 39 32 34 35 32 31 29 29 27 25 26 25 23 24 24 24 23 21 21 21 21 20 19 16 18 19
35 40 37 30 31 38 41 47 44 44 43 43 41 38 38 39 39 40 39 36 38 36 39 33 27 27 25 28 26 26 26 23 24 24 22 22 22 22 22 21 21 22 21
44 36 42 38 32 33 39 43 43 43 43 43 42 39 37 39 39 38 39 39 43 39 40 32 30 27 28 26 26 31 32 25 26 24 24 23 23 24 24 26 25 26 27
41 36 37 40 37 34 37 44 44 43 43 42 42 41 41 41 42 41 40 39 40 43 44 37 35 37 36 32 33 25 25 27 24 23 25 26 26 25 26 27 27 28 29
33 35 35 37 39 38 37 38 40 42 42 41 42 41 42 42 41 39 38 37 37 39 39 41 37 34 34 37 34 36 31 29 31 29 31 26 26 27 28 29 29 30 32
26 37 33 35 35 39 41 42 42 43 42 42 41 40 40 40 39 37 36 34 34 36 41 40 39 39 38 41 38 36 33 39 30 32 35 22 26 31 28 29 31 32 33
20 24 33 32 36 33 37 42 46 47 46 45 44 42 41 40 39 38 37 33 30 31 38 40 43 40 39 38 36 33 37 37 37 33 34 30 35 32 34 36 33 33 34
17 20 23 29 32 34 30 34 38 43 47 47 47 46 45 44 43 41 38 36 35 35 35 38 38 40 35 32 36 36 35 34 34 34 32 33 37 32 35 40 39 39 37
12 15 20 23 26 29 32 29 32 36 41 45 46 46 47 47 47 44 40 38 37 36 37 39 40 39 37 36 37 38 39 36 37 38 37 36 36 36 35 36 46 39 40
9 12 14 19 23 25 29 33 27 33 34 36 39 41 42 43 47 47 44 41 39 36 36 35 39 41 39 38 37 40 41 41 38 40 42 37 40 40 40 41 44 45 47
4 7 12 14 17 21 24 29 29 24 26 32 37 41 41 39 44 43 45 45 41 37 37 36 36 36 37 38 37 39 40 42 41 37 37 41 44 39 41 40 43 43 47
0 3 6 9 12 15 18 22 29 30 25 25 30 26 32 34 44 36 41 41 39 39 38 36 35 35 34 34 37 38 38 38 46 42 41 43 43 35 36 42 42 44 45
3 1 3 5 8 11 14 16 20 27 33 31 27 28 32 32 35 33 34 37 36 32 35 35 37 35 35 37 36 36 34 33 36 38 42 44 44 40 41 39 40 40 44
5 4 2 1 3 7 10 12 15 17 23 32 36 34 32 28 29 35 36 29 33 33 37 35 34 34 34 34 34 34 33 33 36 36 37 37 40 38 38 43 38 38 39
7 6 5 4 0 3 5 8 11 12 14 18 26 31 30 32 31 28 29 27 34 33 33 32 31 29 25 23 25 24 28 34 36 34 31 36 41 44 38 36 37 33 32
8 6 6 5 3 1 3 5 9 12 12 14 16 20 25 22 30 38 35 34 36 35 33 34 30 24 18 17 14 15 22 24 25 27 24 17 19 20 18 21 22 18 24
8 8 7 6 4 1 0 2 5 8 12 12 13 15 20 24 27 32 31 31 31 32 32 27 28 20 24 22 19 20 20 21 20 19 12 14 12 9 13 14 16 12 9
8 7 7 6 6 4 2 0 2 4 7 10 13 14 17 21 23 25 25 24 24 29 28 28 24 24 27 27 23 23 21 19 22 20 19 11 11 8 6 8 9 9 11
8 8 6 7 7 6 4 2 1 3 5 6 9 13 15 18 19 22 23 25 29 30 33 32 31 30 30 26 29 26 27 23 23 21 23 20 17 18 17 17 17 18 19
7 7 6 6 6 6 5 4 3 1 2 4 6 9 13 15 18 22 22 26 25 25 27 31 32 32 30 32 30 28 27 30 20 22 22 21 20 17 16 17 20 22 22
9 9 8 7 7 6 5 5 4 3 1 2 5 7 9 13 14 15 19 22 24 29 29 28 27 26 25 25 25 26 27 25 16 19 18 17 17 15 16 17 18 17 16
8 8 9 10 9 8 7 6 5 4 3 2 1 4 7 10 14 15 14 16 18 18 20 22 24 25 26 27 24 22 22 20 21 18 17 17 17 18 18 18 18 18 19
Wind_Direction
235 232 235 232 231 228 229 226 224 223 220 217 213 213 220 222 228 217 229 226 231 227 225 226 223 221 223 224 222 223 223 226 227 225 224 222 224 225 227 230 232 233 230
229 229 233 234 232 231 229 228 225 221 225 221 217 216 218 221 214 219 226 228 226 225 230 236 233 224 224 225 228 229 228 230 232 231 229 231 232 235 235 235 238 235 238
225 230 233 233 231 230 230 228 224 224 227 226 220 215 215 216 216 216 222 225 224 223 224 237 236 232 231 229 228 230 232 233 235 235 233 234 239 242 244 245 242 243 228
231 235 234 232 224 227 226 228 227 224 221 223 224 222 219 217 214 211 222 229 230 224 237 237 230 227 230 238 237 233 232 232 233 236 238 238 240 239 242 244 244 244 244
226 222 226 227 221 227 222 223 224 225 223 223 223 221 220 218 218 218 231 229 230 219 229 235 228 242 235 231 239 241 238 236 238 239 239 242 243 243 242 241 244 247 242
228 225 222 222 219 219 221 221 220 219 220 221 221 220 217 215 218 220 223 225 231 230 221 221 232 236 234 226 233 242 239 239 240 241 242 242 243 243 243 242 238 238 239
226 231 228 224 225 218 215 216 215 215 217 218 217 216 213 212 220 224 228 227 224 224 226 233 234 228 227 237 240 244 239 244 243 242 243 241 240 242 242 243 242 242 242
213 229 227 226 221 216 213 215 220 221 219 220 214 212 211 214 219 223 226 225 225 225 229 233 231 237 242 244 232 232 225 237 239 243 245 244 243 241 243 245 245 245 246
204 218 222 216 213 214 211 212 215 217 217 218 215 212 211 214 220 223 226 228 227 225 222 225 228 235 240 231 235 237 241 244 238 244 248 242 244 245 246 247 247 250 250
209 213 221 222 217 217 216 213 214 217 218 216 215 213 214 216 220 225 230 231 229 226 223 223 226 236 239 238 238 236 238 238 236 241 247 236 249 248 251 254 253 253 255
197 211 216 222 229 229 224 220 219 220 221 219 218 219 220 222 224 229 232 236 236 232 225 224 224 232 239 243 234 232 242 237 238 241 247 251 255 259 257 255 255 256 257
185 194 209 213 221 229 230 224 221 220 221 221 221 221 223 226 227 229 233 233 233 234 233 226 225 232 237 240 224 231 242 241 237 251 245 251 253 257 254 258 263 257 259
180 181 194 207 215 221 229 230 223 222 221 220 222 224 225 226 228 228 231 233 237 238 235 232 232 236 239 240 238 240 242 243 243 248 247 251 248 246 256 258 255 255 255
189 186 186 191 204 213 215 222 231 223 220 220 220 221 221 224 226 230 231 235 240 241 234 236 236 237 241 243 244 247 245 246 247 252 250 255 257 248 252 246 258 250 253
212 199 192 191 191 199 207 209 215 224 221 220 223 225 224 227 230 230 233 236 242 239 237 236 238 237 239 244 246 249 248 247 246 251 248 254 254 250 247 253 255 254 254
294 193 198 196 194 197 202 206 210 210 206 214 210 214 219 219 218 231 231 233 242 241 234 234 237 238 239 241 246 249 247 249 247 254 256 255 247 244 252 257 255 259 256
24 47 195 215 206 199 200 205 206 207 214 210 205 213 214 216 211 226 235 231 229 234 227 232 234 237 242 246 251 251 255 247 248 247 246 248 256 261 253 259 266 260 261
17 27 71 117 216 213 210 205 208 205 203 214 223 220 222 216 225 228 228 227 220 230 232 234 236 243 247 250 253 252 244 245 253 250 247 261 258 257 266 267 266 266 267
24 24 29 48 160 225 222 222 216 207 202 200 206 217 228 230 234 229 217 225 231 220 224 233 236 236 237 248 253 246 240 240 247 255 257 257 262 263 258 254 258 256 259
31 30 23 25 43 285 239 230 233 226 215 204 200 198 206 213 225 221 230 222 221 228 225 222 223 226 234 245 235 229 223 233 238 249 252 239 242 238 240 246 248 255 256
22 30 27 21 19 25 316 250 239 237 231 220 213 208 202 202 208 210 210 214 212 213 211 206 214 224 222 224 213 221 229 237 227 228 223 214 234 238 227 243 235 233 263
14 20 31 28 26 20 18 31 234 231 228 226 226 223 215 207 203 202 200 203 213 207 203 211 210 221 230 233 231 233 233 228 222 215 224 221 211 218 233 246 251 249 247
20 19 23 32 28 21 13 10 151 196 224 224 225 229 228 223 212 195 196 196 194 197 202 213 224 224 221 227 217 219 211 224 221 225 216 222 236 234 239 245 251 254 253
26 25 26 28 29 22 21 27 40 103 177 213 213 221 231 228 229 224 204 198 203 204 193 192 200 206 213 208 205 213 223 229 223 225 227 233 232 231 241 247 250 254 258
10 13 13 25 33 30 22 22 28 38 42 178 191 203 216 225 220 225 227 220 211 211 215 213 209 206 213 220 235 239 239 231 221 218 218 220 228 231 234 241 249 253 254
356 359 358 4 10 14 17 18 20 29 32 35 149 171 180 199 214 212 215 221 221 219 215 216 221 223 226 229 226 231 228 216 209 216 223 230 238 243 247 252 255 255 254